QPF
0.00 0.00 0.00 0.00 0.00 0.00 0.00 0.00 0.00 0.00 0.00 0.00 0.00 0.00 0.00 0.00 0.00 0.00 0.00 0.00 0.00 0.00 0.00 0.00 0.00 0.00 0.00 0.00 0.00 0.03 0.09 0.06
0.00 0.00 0.00 0.00 0.00 0.00 0.00 0.00 0.00 0.00 0.00 0.00 0.00 0.00 0.00 0.00 0.00 0.00 0.00 0.00 0.00 0.00 0.00 0.00 0.00 0.00 0.00 0.00 0.00 0.01 0.11 0.28
0.00 0.00 0.00 0.00 0.00 0.00 0.00 0.00 0.00 0.00 0.00 0.00 0.00 0.00 0.00 0.00 0.00 0.00 0.00 0.00 0.00 0.00 0.00 0.00 0.00 0.00 0.00 0.00 0.00 0.00 0.01 0.14
0.00 0.00 0.00 0.00 0.00 0.00 0.00 0.00 0.00 0.00 0.00 0.00 0.00 0.00 0.00 0.00 0.00 0.00 0.00 0.00 0.00 0.00 0.00 0.00 0.00 0.00 0.00 0.00 0.00 0.00 0.01 0.00
0.00 0.00 0.00 0.00 0.00 0.00 0.00 0.00 0.00 0.00 0.00 0.00 0.00 0.00 0.00 0.00 0.00 0.00 0.00 0.00 0.00 0.00 0.01 0.01 0.01 0.01 0.01 0.00 0.00 0.00 0.01 0.01
0.00 0.00 0.00 0.00 0.00 0.00 0.00 0.00 0.00 0.00 0.00 0.00 0.00 0.00 0.00 0.00 0.00 0.00 0.00 0.00 0.00 0.00 0.00 0.00 0.00 0.01 0.01 0.01 0.01 0.01 0.00 0.01
0.00 0.00 0.00 0.00 0.00 0.00 0.00 0.00 0.00 0.00 0.00 0.00 0.00 0.00 0.00 0.00 0.00 0.00 0.00 0.00 0.00 0.00 0.00 0.00 0.00 0.00 0.00 0.01 0.00 0.01 0.01 0.01
0.00 0.00 0.00 0.00 0.00 0.00 0.00 0.00 0.00 0.00 0.00 0.00 0.00 0.00 0.00 0.00 0.00 0.00 0.00 0.00 0.00 0.00 0.00 0.00 0.00 0.00 0.00 0.00 0.01 0.01 0.01 0.01
0.00 0.00 0.00 0.00 0.00 0.00 0.00 0.00 0.00 0.00 0.00 0.00 0.00 0.00 0.00 0.00 0.00 0.01 0.01 0.01 0.01 0.00 0.00 0.00 0.00 0.00 0.00 0.01 0.02 0.02 0.02 0.02
0.00 0.00 0.00 0.00 0.00 0.00 0.00 0.00 0.00 0.00 0.00 0.00 0.00 0.00 0.00 0.00 0.00 0.01 0.02 0.01 0.01 0.01 0.00 0.00 0.00 0.00 0.00 0.01 0.02 0.02 0.02 0.02
0.00 0.00 0.00 0.00 0.00 0.00 0.00 0.00 0.00 0.00 0.00 0.00 0.00 0.00 0.00 0.00 0.00 0.00 0.01 0.01 0.01 0.01 0.00 0.00 0.00 0.00 0.01 0.01 0.05 0.05 0.04 0.01
0.00 0.00 0.00 0.00 0.00 0.00 0.00 0.00 0.00 0.00 0.00 0.00 0.00 0.00 0.00 0.00 0.00 0.00 0.01 0.01 0.01 0.02 0.01 0.01 0.02 0.02 0.04 0.09 0.19 0.11 0.08 0.03
0.00 0.00 0.00 0.00 0.00 0.00 0.00 0.00 0.00 0.00 0.00 0.00 0.00 0.00 0.00 0.00 0.00 0.00 0.01 0.03 0.05 0.05 0.03 0.02 0.01 0.04 0.12 0.15 0.12 0.13 0.08 0.05
0.00 0.00 0.00 0.00 0.00 0.00 0.00 0.00 0.00 0.00 0.00 0.00 0.00 0.00 0.00 0.00 0.00 0.00 0.00 0.01 0.01 0.01 0.02 0.03 0.06 0.20 0.26 0.49 0.29 0.08 0.05 0.05
0.00 0.00 0.00 0.00 0.00 0.00 0.00 0.00 0.00 0.00 0.00 0.00 0.00 0.00 0.00 0.00 0.00 0.00 0.00 0.01 0.02 0.02 0.04 0.09 0.11 0.11 0.18 0.28 0.35 0.28 0.24 0.29
0.00 0.00 0.00 0.00 0.00 0.00 0.00 0.00 0.00 0.00 0.00 0.00 0.00 0.00 0.00 0.00 0.00 0.00 0.00 0.00 0.00 0.02 0.04 0.08 0.11 0.11 0.17 0.25 0.15 0.36 0.25 0.34
0.00 0.00 0.00 0.00 0.00 0.00 0.00 0.00 0.00 0.00 0.00 0.00 0.00 0.00 0.00 0.00 0.00 0.00 0.00 0.00 0.00 0.00 0.00 0.02 0.06 0.08 0.08 0.04 0.03 0.13 0.21 0.15
0.00 0.00 0.00 0.00 0.00 0.00 0.00 0.00 0.00 0.00 0.00 0.00 0.00 0.00 0.00 0.00 0.00 0.00 0.00 0.00 0.00 0.00 0.00 0.00 0.00 0.02 0.02 0.02 0.01 0.02 0.04 0.06
0.00 0.00 0.00 0.00 0.00 0.00 0.00 0.00 0.00 0.00 0.00 0.00 0.00 0.00 0.00 0.00 0.00 0.00 0.00 0.00 0.00 0.00 0.00 0.00 0.00 0.00 0.00 0.00 0.00 0.00 0.00 0.00
MSLP
1021.99 1022.32 1022.58 1022.61 1022.59 1022.56 1022.39 1022.18 1021.88 1021.44 1020.53 1020.00 1019.48 1019.13 1018.64 1018.13 1017.46 1016.97 1016.77 1016.39 1016.25 1015.81 1015.02 1014.49 1013.79 1012.19 1011.33 1010.95 1010.35 1009.79 1009.87 1008.77
1022.10 1022.50 1022.63 1022.76 1022.70 1022.63 1022.44 1022.17 1021.94 1021.58 1020.85 1020.33 1019.81 1019.33 1018.88 1018.22 1017.64 1017.47 1017.00 1016.20 1015.85 1015.28 1014.73 1014.26 1013.65 1012.36 1011.08 1010.70 1010.06 1009.24 1008.96 1009.12
1022.02 1022.38 1022.64 1022.74 1022.62 1022.65 1022.42 1022.17 1022.02 1021.83 1021.61 1021.26 1020.87 1020.15 1019.40 1018.73 1017.82 1017.09 1016.62 1016.30 1015.75 1014.95 1014.38 1013.71 1013.25 1012.40 1011.73 1011.05 1010.24 1009.23 1008.42 1008.49
1022.08 1022.42 1022.68 1022.73 1022.61 1022.50 1022.39 1022.36 1022.13 1022.02 1022.25 1021.57 1020.79 1019.95 1019.15 1018.33 1017.98 1017.42 1016.96 1016.20 1015.56 1015.06 1014.44 1013.65 1012.90 1012.10 1011.42 1011.28 1010.28 1009.48 1008.79 1007.18
1022.13 1022.44 1022.64 1022.76 1022.90 1022.86 1022.64 1022.58 1022.36 1022.28 1022.25 1021.75 1021.22 1020.45 1019.47 1019.18 1018.37 1017.79 1016.79 1016.01 1015.80 1015.37 1014.45 1013.57 1012.69 1011.82 1010.84 1010.55 1010.29 1009.64 1008.46 1007.76
1022.25 1022.72 1022.86 1022.97 1023.11 1023.17 1023.01 1022.83 1022.52 1022.50 1022.37 1021.93 1021.49 1020.96 1020.26 1019.59 1018.85 1018.12 1017.02 1016.36 1015.95 1015.21 1014.33 1013.44 1012.49 1011.55 1010.89 1010.41 1009.88 1009.26 1008.48 1007.23
1022.62 1022.96 1023.01 1023.05 1023.31 1023.50 1023.27 1023.19 1022.71 1022.71 1022.50 1021.99 1021.78 1021.28 1020.77 1019.87 1019.28 1018.45 1017.66 1016.94 1016.13 1015.18 1014.24 1013.03 1011.96 1011.01 1010.19 1009.56 1009.01 1008.51 1007.96 1006.96
1022.76 1023.04 1023.06 1023.31 1023.63 1023.69 1023.63 1023.44 1023.02 1022.94 1022.77 1022.25 1021.91 1021.76 1021.28 1020.41 1019.92 1019.14 1018.06 1017.10 1016.24 1015.27 1014.42 1013.25 1012.16 1011.16 1010.14 1009.12 1008.30 1007.21 1006.64 1005.93
1023.26 1023.71 1023.75 1023.94 1024.14 1024.11 1024.11 1023.80 1023.48 1023.19 1023.05 1022.56 1022.48 1022.15 1021.57 1020.99 1020.55 1019.82 1018.86 1017.94 1016.94 1015.91 1014.78 1013.85 1012.65 1011.41 1010.08 1008.59 1007.23 1006.32 1005.01 1004.61
1023.89 1024.25 1024.48 1024.63 1024.67 1024.59 1024.50 1024.31 1024.23 1023.61 1023.54 1023.13 1022.96 1022.46 1022.08 1021.79 1021.20 1020.48 1019.58 1018.78 1017.64 1016.67 1015.67 1014.66 1013.15 1011.98 1010.45 1008.78 1007.72 1006.93 1005.36 1004.52
1024.44 1024.93 1025.27 1025.31 1025.43 1024.97 1024.99 1025.00 1024.97 1024.38 1023.78 1023.87 1023.50 1023.31 1022.91 1022.36 1021.75 1020.86 1020.26 1019.40 1018.20 1017.14 1016.15 1015.24 1013.85 1012.66 1010.80 1009.83 1008.87 1008.19 1007.50 1006.32
1025.40 1025.52 1025.79 1025.94 1025.91 1025.50 1025.32 1025.31 1025.68 1025.34 1024.90 1024.47 1024.18 1024.20 1023.56 1022.96 1022.48 1021.71 1021.00 1020.02 1018.93 1017.81 1017.04 1015.94 1014.68 1013.08 1012.73 1011.71 1009.94 1009.42 1009.81 1008.88
1025.80 1025.83 1026.00 1026.14 1026.14 1026.20 1025.80 1025.77 1025.65 1025.75 1025.56 1025.23 1024.93 1024.86 1024.30 1023.45 1023.20 1022.45 1021.81 1020.88 1019.96 1018.89 1018.17 1016.61 1015.74 1015.10 1014.26 1012.15 1012.07 1011.31 1011.64 1010.74
1025.67 1025.84 1026.07 1026.19 1026.28 1026.27 1026.05 1026.11 1025.98 1026.02 1025.66 1025.69 1025.48 1024.87 1024.44 1023.89 1023.65 1023.00 1022.42 1021.67 1020.78 1020.08 1019.09 1018.37 1017.31 1016.44 1015.43 1013.45 1013.98 1014.05 1013.44 1012.20
1024.98 1025.54 1025.90 1026.12 1026.29 1026.29 1026.00 1026.15 1026.39 1025.91 1025.97 1025.33 1025.49 1025.14 1024.38 1023.79 1023.77 1023.25 1022.52 1022.12 1021.67 1021.15 1020.66 1020.14 1018.59 1017.60 1016.42 1015.55 1015.31 1015.45 1014.67 1014.63
1023.98 1024.38 1025.01 1025.63 1025.94 1025.72 1025.56 1025.66 1025.72 1025.74 1026.15 1025.56 1025.35 1024.88 1024.82 1024.08 1023.68 1023.27 1022.66 1022.15 1021.89 1021.49 1021.48 1020.82 1019.78 1018.85 1018.32 1017.61 1017.69 1017.56 1016.50 1015.89
1023.23 1023.88 1024.37 1024.73 1024.99 1025.24 1025.54 1025.66 1025.59 1025.67 1025.66 1025.36 1025.64 1025.34 1024.94 1024.71 1024.03 1023.69 1023.19 1022.64 1022.30 1021.89 1021.36 1021.17 1020.84 1020.48 1020.11 1019.16 1019.35 1018.97 1018.15 1018.35
1022.89 1023.64 1024.16 1024.50 1024.94 1025.28 1025.45 1025.66 1025.82 1025.99 1025.92 1025.76 1025.75 1025.88 1025.59 1025.37 1024.93 1024.26 1023.83 1023.50 1023.13 1022.65 1022.19 1021.75 1021.96 1021.87 1021.10 1020.63 1020.30 1020.25 1019.87 1019.63
1022.81 1023.81 1024.27 1024.67 1025.04 1025.40 1025.73 1025.90 1026.16 1026.23 1026.22 1026.19 1026.33 1026.35 1026.31 1026.04 1025.67 1025.14 1024.80 1024.46 1024.17 1023.94 1023.54 1023.24 1023.03 1023.41 1023.14 1022.26 1021.59 1021.13 1020.84 1021.00
Thickness
5579 5576 5572 5571 5569 5567 5567 5567 5568 5569 5574 5576 5578 5579 5582 5585 5587 5588 5588 5590 5590 5591 5597 5602 5607 5621 5629 5632 5638 5645 5646 5657
5569 5564 5562 5558 5557 5556 5556 5557 5556 5557 5560 5563 5565 5565 5565 5567 5568 5567 5569 5573 5575 5580 5584 5587 5592 5605 5616 5619 5624 5633 5639 5640
5556 5552 5549 5546 5546 5544 5545 5545 5543 5542 5541 5542 5542 5545 5548 5549 5552 5554 5555 5555 5558 5563 5569 5574 5578 5587 5594 5599 5606 5615 5625 5628
5541 5537 5534 5532 5532 5531 5530 5528 5528 5527 5522 5526 5528 5531 5534 5537 5536 5537 5535 5539 5542 5544 5548 5556 5562 5570 5577 5578 5588 5595 5599 5620
5527 5523 5520 5519 5516 5514 5515 5514 5514 5512 5509 5509 5509 5512 5517 5514 5518 5517 5520 5521 5521 5522 5529 5535 5544 5551 5561 5563 5566 5573 5582 5592
5513 5508 5506 5504 5501 5499 5499 5498 5499 5496 5494 5494 5495 5494 5496 5497 5498 5499 5503 5503 5503 5507 5514 5521 5530 5539 5542 5546 5551 5557 5565 5576
5497 5494 5493 5492 5488 5484 5484 5482 5484 5481 5480 5480 5478 5478 5476 5479 5479 5480 5483 5484 5489 5496 5503 5512 5520 5527 5534 5539 5543 5547 5554 5563
5487 5484 5483 5478 5474 5471 5469 5468 5470 5468 5465 5466 5464 5460 5459 5462 5461 5463 5467 5471 5477 5484 5490 5498 5506 5510 5517 5525 5533 5542 5549 5560
5473 5468 5466 5462 5460 5458 5455 5455 5456 5455 5453 5454 5449 5447 5447 5448 5446 5448 5452 5456 5460 5467 5475 5479 5486 5493 5502 5514 5525 5532 5546 5554
5459 5455 5450 5447 5446 5445 5443 5442 5440 5444 5440 5441 5437 5437 5435 5432 5432 5435 5439 5441 5446 5451 5456 5462 5469 5475 5484 5493 5501 5508 5523 5535
5447 5442 5436 5434 5431 5435 5431 5429 5426 5429 5431 5427 5426 5422 5420 5420 5421 5424 5425 5428 5433 5439 5443 5445 5450 5452 5460 5462 5462 5464 5480 5501
5428 5429 5424 5421 5419 5423 5421 5419 5414 5414 5415 5414 5413 5406 5407 5408 5408 5411 5413 5417 5421 5426 5426 5428 5430 5436 5433 5435 5440 5442 5443 5463
5417 5417 5415 5412 5411 5407 5409 5408 5408 5404 5402 5400 5398 5395 5395 5398 5396 5399 5400 5403 5408 5413 5410 5415 5414 5414 5417 5425 5421 5426 5427 5445
5411 5410 5406 5404 5402 5400 5400 5399 5398 5396 5395 5391 5388 5390 5388 5389 5387 5388 5389 5391 5394 5394 5397 5395 5398 5402 5405 5416 5405 5405 5415 5428
5412 5404 5399 5396 5394 5393 5395 5392 5388 5390 5386 5391 5384 5383 5386 5386 5381 5381 5383 5382 5381 5381 5382 5378 5388 5391 5398 5403 5401 5399 5408 5411
5415 5412 5404 5395 5391 5393 5394 5391 5388 5386 5380 5384 5383 5383 5380 5382 5380 5379 5379 5380 5378 5377 5374 5375 5379 5381 5381 5388 5386 5386 5395 5402
5416 5408 5403 5399 5395 5391 5386 5384 5383 5380 5379 5381 5377 5377 5376 5374 5377 5374 5374 5374 5374 5374 5375 5375 5372 5371 5370 5376 5373 5377 5385 5382
5409 5402 5397 5393 5387 5383 5380 5377 5374 5371 5370 5372 5371 5368 5367 5366 5367 5370 5369 5367 5367 5368 5369 5371 5366 5365 5367 5366 5366 5367 5371 5374
5402 5391 5387 5383 5379 5374 5370 5367 5364 5361 5361 5361 5360 5358 5356 5356 5358 5360 5360 5360 5359 5358 5359 5359 5359 5353 5351 5353 5356 5361 5364 5361